Location: Bishop�s Knoyle
(51.0728°N, 2.1714°W)
Time: 21:16:39
(UTC+00:00)

UNISAT 6 - Visible Passes

Search period start: 05 December 2021 00:00
Search period end: 15 December 2021 00:00
Orbit: 605 x 688 km, 97.7° (Epoch: 04 December)

Date Brightness Start Highest point End Pass type
(mag) Time Alt. Az. Time Alt. Az. Time Alt. Az.
05 Dec ? 04:38:56 10° E 04:41:44 17° ENE 04:44:33 10° NNE visible
05 Dec ? 06:13:44 10° S 06:17:59 66° W 06:22:14 10° NNW visible
06 Dec ? 05:03:26 10° ESE 05:07:03 28° ENE 05:10:41 10° N visible
06 Dec ? 06:39:40 10° SSW 06:43:38 37° W 06:47:37 10° NNW visible
07 Dec ? 05:28:23 10° SE 05:32:28 46° ENE 05:36:32 10° N visible
07 Dec ? 07:06:03 10° SW 07:09:23 22° W 07:12:43 10° NW visible
08 Dec ? 04:20:14 10° E 04:21:58 12° NE 04:23:41 10° NNE visible
08 Dec ? 05:53:41 10° SSE 05:57:56 80° ENE 06:02:13 10° NNW visible
09 Dec ? 04:44:10 10° ESE 04:47:12 19° ENE 04:50:15 10° NNE visible
09 Dec ? 06:19:20 10° S 06:23:32 58° W 06:27:45 10° NNW visible
10 Dec ? 05:08:48 10° SE 05:12:31 31° ENE 05:16:00 12° N visible
10 Dec ? 06:45:21 10° SSW 06:49:12 33° W 06:53:04 10° NNW visible
11 Dec ? 05:33:50 10° SSE 05:37:57 52° ENE 05:41:44 12° N visible
11 Dec ? 07:11:53 10° SW 07:14:58 19° W 07:18:04 10° NW visible
11 Dec ? 19:04:32 11° S 19:04:32 11° S 19:04:43 10° S visible
12 Dec ? 04:25:15 10° E 04:27:24 14° NE 04:29:33 10° NNE visible
12 Dec ? 05:59:12 10° SSE 06:03:27 89° WSW 06:07:29 12° NNW visible
12 Dec ? 19:30:17 10° SSW 19:30:17 10° SSW 19:30:20 10° SSW visible
13 Dec ? 04:49:25 10° ESE 04:52:40 22° ENE 04:55:30 12° NNE visible
13 Dec ? 06:24:56 10° S 06:29:03 50° W 06:33:13 10° NNW visible
14 Dec ? 05:14:09 10° SE 05:18:00 35° ENE 05:21:15 14° N visible
14 Dec ? 06:51:03 10° SSW 06:54:45 29° W 06:58:30 10° NNW visible
14 Dec ? 18:44:02 12° SSE 18:44:02 12° SSE 18:44:27 10° SSE visible
